This demonstration page uses our WeatherBlox Daily Observations layout. Learn more.

Hourly Observations for December 3, 2020

Temp ( °F °C ) Dew Point ( °F °C ) Humidity (%) Winds ( mph kmh ) Pressure ( in mb ) Visibility ( mi km ) Precip ( " mm )
12:53 am 00:53 Clear 20 -6.7 17 -8.3 89 89 Calm 30.35 1028 10 16.0934 0 0
1:53 am 01:53 Clear 20 -6.7 18 -7.8 92 92 Calm 30.33 1027 10 16.0934 0 0
2:53 am 02:53 Clear 22 -5.6 19 -7.2 89 89 Calm 30.33 1027 10 16.0934 0 0
3:53 am 03:53 Clear 22 -5.6 20 -6.7 92 92 Calm 30.32 1027 10 16.0934 0 0
4:53 am 04:53 Clear 24 -4.4 21 -6.1 88 88 Calm 30.32 1027 10 16.0934 0 0
5:53 am 05:53 Clear 21 -6.1 18 -7.8 88 88 Calm 30.3 1026 9 14.48406 0 0
6:53 am 06:53 Clear 22 -5.6 19 -7.2 89 89 NE 3 6 30.32 1027 9 14.48406 0 0
7:53 am 07:53 Sunny 22 -5.6 20 -6.7 92 92 Calm 30.35 1028 7 11.26538 0 0
8:53 am 08:53 Sunny 26 -3.3 24 -4.4 92 92 Calm 30.33 1027 7 11.26538 0 0
9:53 am 09:53 Sunny 33 0.6 28 -2.2 82 82 Calm 30.33 1027 10 16.0934 0 0
10:53 am 10:53 Sunny 34 1.1 29 -1.7 82 82 Calm 30.34 1027 10 16.0934 0 0
11:53 am 11:53 Mostly Cloudy 37 2.8 29 -1.7 73 73 Calm 30.3 1026 10 16.0934 0 0
12:53 pm 12:53 Sunny 41 5 27 -2.8 57 57 SSW 3 6 30.26 1025 10 16.0934 0 0
1:53 pm 13:53 Mostly Cloudy 41 5 27 -2.8 57 57 W 5 7 30.24 1024 10 16.0934 0 0
2:53 pm 14:53 Mostly Cloudy 42 5.6 27 -2.8 55 55 VRB 3 6 30.18 1022 10 16.0934 0 0
3:53 pm 15:53 Sunny 44 6.7 26 -3.3 49 49 VRB 5 7 30.21 1023 10 16.0934 0 0
4:53 pm 16:53 Sunny 41 5 27 -2.8 57 57 S 3 6 30.21 1023 10 16.0934 0 0
5:53 pm 17:53 Clear 39 3.9 27 -2.8 62 62 VRB 3 6 30.2 1023 10 16.0934 0 0
6:53 pm 18:53 Cloudy 38 3.3 28 -2.2 68 68 Calm 30.2 1023 10 16.0934 0 0
7:53 pm 19:53 Cloudy 38 3.3 28 -2.2 68 68 Calm 30.19 1023 10 16.0934 0 0
8:53 pm 20:53 Cloudy 37 2.8 31 -0.6 79 79 Calm 30.18 1022 10 16.0934 0 0
9:53 pm 21:53 Cloudy 38 3.3 31 -0.6 76 76 Calm 30.16 1022 10 16.0934 0 0
10:53 pm 22:53 Cloudy 39 3.9 32 0 76 76 Calm 30.15 1021 10 16.0934 0 0
11:53 pm 23:53 Cloudy 38 3.3 33 0.6 83 83 Calm 30.15 1021 10 16.0934 0 0

Powered by AerisWeather